Tracking 29892 objects as of 21-Nov-2024
HD Live streaming from Space Station
objects crossing your sky now

BREEZE-M R/B

Track BREEZE-M R/B now!


NORAD ID: 40259
Int'l Code: 2014-058B
Perigee: 35,513.8 km
Apogee: 41,258.5 km
Inclination: 9.0 °
Period: 1,570.6 minutes
Semi major axis: 44757 km
RCS: Unknown
Launch date: September 27, 2014
Source: Commonwealth of Independent States (former USSR) (CIS)
Launch site: TYURATAM MISSILE AND SPACE COMPLEX (TTMTR)

Note: This is a ROCKET BODY
Your satellite tracking list
Your tracking list is empty




NASA's NSSDC Master Catalog

Two Line Element Set (TLE):
1 40259U 14058B   24325.01131285 -.00000192  00000-0  00000-0 0  9998
2 40259   8.9674  64.9446 0641762 186.0619 172.9785  0.91687450 33966
Source of the keplerian elements: AFSPC